Location: Unspecified
(33.6682°S, 0.0000°E)
Time: 11:39:07
(UTC+00:00)

Tiros 1 despin weight - Pass Details

Date: 23 June 2019
Orbit: 594 x 642 km, 48.2° (Epoch: 21 July)

Event Time Altitude Azimuth Distance (km) Brightness Sun altitude
Rises 15:32:38 0° 226° (SW) 2,971 ? 14.1°
Reaches altitude 10° 15:35:18 10° 214° (SSW) 2,059 ? 13.7°
Maximum altitude 15:39:21 27° 155° (SSE) 1,245 ? 13.0°
Drops below altitude 10° 15:43:23 10° 97° (E) 2,042 ? 12.4°
Sets 15:46:00 0° 84° (E) 2,942 ? 12.0°
